Powrót do katalogu

SCOUT G-1 DEB

AktywnyPO
NORAD 29211·DEBRIS·🇺🇸 United States

Wystrzelony Sep 16, 1987 z Vandenberg Space Force Base

Loading…

Następne Przeloty (najbliższe 24 godziny)

TLE

ŚwieżeSource: Space-Track

Epoka: Sep 14, 2026, 08:47 UTC

1 29211U 87080P   26257.36603813  .00004031  00000-0  18046-2 0  9999
2 29211  90.3147 122.7330 0068388  93.6660 267.2355 14.21214403116046

Śledź SCOUT G-1 DEB w czasie rzeczywistym z AllMySat

Download on the App Store